User: anonymous   Login
Location: Niedergestelen
(46.3129°N, 7.7822°E)
Time: 11:20:57
(UTC+00:00)
Language:

CZ-4B R/B - Orbit

View from above orbital plane
View from above orbital plane
View from above satellite
View from above satellite

Ground track
Ground track

The orbit data is extracted from the following two-line orbital elements,

1 29093U 06015B   21063.79091859  .00006041  00000-0  11115-3 0  9998
2 29093  97.6333 250.2295 0052402  98.0138 262.7063 15.48067548826733
Epoch (UTC): 04 March 2021 18:58:55
Eccentricity: 0.0052402
inclination: 97.6333°
perigee height: 387 km
apogee height: 458 km
right ascension of ascending node: 250.2295°
argument of perigee: 98.0138°
revolutions per day: 15.48067548
mean anomaly at epoch: 262.7063°
orbit number at epoch: 82673

The dashed part of the orbit path shows where the satellite is in the earth's shadow,  

DLR